星链-30234 (STARLINK-30234 )

导读

STARLINK-30234是美国SpaceX公司星链(Starlink)互联网星座中的一颗小型二代(V2.0 MINI)低轨卫星,于2023年7月10日由猎鹰九号运载火箭自美国卡纳维拉尔角发射升空。卫星重约790千克,配备霍尔电力推进系统与激光星间链路,入轨后将爬升至上百公里高度运行,助力提升全球高速互联网覆盖能力,是星链星座组网部署的组成部分。

Basic Information
目录编号:
57297
目录名称:
STARLINK-30234
国际标识:
2023-096H
轨道中心:
EARTH
卫星名称:
星链-30234
卫星全名:
星链-30234 (STARLINK-30234 )
卫星状态:
已陨落 最后检测时间 2025-11-09
发射日期:
2023-07-10 UTC
国别 :
美国 (US)
星等 :
--
Orbit Information
数据来源 国际轨道数据
星历时间: 2025-11-08T20:55:31+0800
轨道信息已过期222天
半长轴: 6613.159km
偏心率: 0.0015811
轨道倾角: 42.965°
近地点辐角 339.869°
升交点赤经 84.792°
平近点角 20.157°
近地点: 224.567km
远地点: 245.481km
周期: 89.202分钟
每日圈数: 16.14319
Detailed Information
固有亮度:
5
最大亮度:
0.3
卫星平台:
Starlink v2.0 mini
覆盖范围:
全球
运营商:
太空探索技术公司
运营商所在国:
美国
制造商(研发单位):
太空探索技术公司
制造商所在国:
美国
使用方式:
暂无
Satellite Introduction
星链(Starlink)计划是由太空探索技术公司(SpaceX)提出的一个巨型低轨卫星互联网星座项目,计划在2019年至2024年间在太空搭建由约1.2万颗卫星组成的“星链”网络,其中1584颗将部署在地球上空550千米处的近地轨道,并从2020年开始工作。该卫星仍在工作。